[[{"header":{"parameterUnit":"m.s-1","parameterCategory":1,"la1":30.2991,"la2":30.254,"lo1":-89.0895,"lo2":-89.0444,"dy":0.0017,"dx":0.0017,"nx":28,"ny":28,"refTime":"2024-08-20T03:00:00:Z","depth":0,"parameterNumber":2,"parameterNumberName":"U-component_of_WINDS"},"data":[0,0,0,0,0,0,0,0,0,0,0,0,0,0,0,0,0,0,0,0,0,0,0,0,0,0,0,0,0,0,0,0,0,0,0,0,0,0,0,0,0,0,0,0,0,0,0,0,0,0,0,0,0,0,0,0,0,0,-0.795,-0.7951,0,-0.8062,-0.8064,-0.8065,-0.8033,-0.803,-0.8028,-0.8026,-0.8144,-0.8149,-0.8154,0,0,0,0,0,0,0,0,0,0,0,0,0,-0.7708,-0.7713,-0.795,-0.7951,-0.7952,-0.8062,-0.8064,-0.8065,-0.8033,-0.803,-0.8027,-0.8025,-0.8142,-0.8148,-0.8155,0,0,0,0,0,0,0,0,0,0,0,0,0,-0.7816,-0.7714,-0.7949,-0.7949,-0.7951,-0.8062,-0.8064,-0.8066,-0.8034,-0.803,-0.8027,-0.8023,-0.814,-0.8148,-0.8156,-0.8274,0,0,-0.818,-0.8183,0,0,0,0,0,0,0,0,-0.781,-0.7825,-0.7948,-0.795,-0.7951,-0.803,-0.8022,-0.8136,-0.8034,-0.8002,-0.8026,-0.8022,-0.8109,-0.8119,-0.8148,-0.828,-0.8285,-0.8181,-0.8185,-0.8189,-0.8191,0,0,0,0,0,0,0,-0.7803,-0.782,-0.7994,-0.795,-0.7952,-0.7944,-0.7956,-0.8043,-0.8074,-0.8005,-0.8003,-0.8016,-0.8109,-0.814,-0.815,-0.8286,-0.818,-0.8187,-0.8192,-0.8195,-0.852,-0.8524,0,0,0,0,0,0,-0.7794,-0.7814,-0.7991,-0.7998,-0.7871,-0.7952,-0.7964,-0.8008,-0.8073,-0.8079,-0.8019,-0.8014,-0.8128,-0.8141,-0.8155,-0.8297,-0.8189,-0.8196,-0.8201,-0.8516,-0.8521,-0.8525,0,0,0,0,0,0,-0.7789,-0.781,-0.7986,-0.7905,-0.7927,-0.7959,-0.8009,-0.8012,-0.8043,-0.8083,-0.8089,-0.8045,-0.8126,-0.8143,-0.8244,-0.8301,-0.82,-0.8207,-0.8512,-0.8518,-0.8523,-0.8584,0,0,0,0,0,0,-0.7782,-0.7808,-0.7853,-0.7907,-0.7932,-0.8074,-0.8012,-0.8017,-0.8057,-0.8052,-0.811,-0.8116,-0.8125,-0.8233,-0.8252,-0.831,-0.8213,-0.8507,-0.8515,-0.8521,-0.8577,-0.8591,-0.8603,0,0,0,0,0,-0.7773,-0.7867,-0.7856,-0.7877,-0.7989,-0.8077,-0.8092,-0.8099,-0.8062,-0.8108,-0.8133,-0.8114,-0.8291,-0.8243,-0.8265,-0.8326,-0.8503,-0.8512,-0.8521,-0.8571,-0.8589,-0.8603,0,0,0,0,0,0,-0.7821,-0.7874,-0.7862,-0.7976,-0.8022,-0.8071,-0.813,-0.8117,-0.8176,-0.8169,-0.8176,-0.819,-0.8293,-0.8319,-0.8265,-0.8444,-0.8392,-0.8405,-0.8423,-0.844,-0.8452,-0.8444,-0.822,0,0,0,0,0,-0.7844,-0.7911,-0.7954,-0.805,-0.8074,-0.8098,-0.8137,-0.8138,-0.8187,-0.8207,-0.8239,-0.8288,-0.8354,-0.8398,-0.8462,-0.858,-0.8592,-0.8633,-0.8646,-0.8657,-0.8669,-0.8733,-0.8751,-0.8554,-0.8554,-0.8554,0,0,-0.7894,-0.7931,-0.7973,-0.8061,-0.8097,-0.8166,-0.8115,-0.819,-0.8242,-0.8218,-0.8315,-0.8341,-0.8396,-0.8506,-0.8556,-0.8531,-0.8725,-0.8668,-0.8676,-0.8682,-0.8743,-0.8762,-0.8779,-0.856,-0.8559,-0.8558,0,0,-0.802,-0.8055,-0.8138,-0.8175,-0.823,-0.8245,-0.8265,-0.8316,-0.8332,-0.8429,-0.8412,-0.8474,-0.8588,-0.8628,-0.8663,-0.8802,-0.8787,-0.8822,-0.8891,-0.8953,-0.8969,-0.8983,-0.9032,-0.905,-0.8834,-0.8834,-0.8834,0,-0.8076,-0.8179,-0.8183,-0.826,-0.8299,-0.8279,-0.8363,-0.8399,-0.8472,-0.85,-0.847,-0.8613,-0.8648,-0.8767,-0.8801,-0.883,-0.8853,-0.8816,-0.8966,-0.898,-0.8993,-0.904,-0.9059,-0.8838,-0.8837,-0.8837,-0.8837,0,-0.8244,-0.8316,-0.8377,-0.8446,-0.8492,-0.8572,-0.8589,-0.8634,-0.8631,-0.865,-0.8749,-0.879,-0.8861,-0.8889,-0.8888,-0.9008,-0.899,-0.8964,-0.8912,-0.9016,-0.906,-0.9078,-0.8844,-0.8842,-0.8841,-0.884,0,0,-0.8405,-0.8474,-0.8497,-0.8528,-0.8586,-0.8642,-0.8721,-0.8789,-0.8828,-0.8879,-0.8945,-0.9042,-0.9017,-0.9057,-0.9059,-0.9114,-0.9221,-0.908,-0.9082,-0.9105,-0.9355,-0.9375,-0.9396,-0.921,-0.9214,-0.9217,-0.9351,0,-0.8536,-0.8675,-0.868,-0.8807,-0.8873,-0.8854,-0.8923,-0.8966,-0.8985,-0.9044,-0.9065,-0.9133,-0.9095,-0.9119,-0.9172,-0.9197,-0.9271,-0.9187,-0.9273,-0.9276,-0.9261,-0.942,-0.9441,-0.9566,-0.9368,-0.9371,-0.9373,0,-0.8708,-0.8763,-0.8896,-0.8943,-0.8971,-0.9033,-0.9095,-0.9152,-0.92,-0.921,-0.9253,-0.9248,-0.9329,-0.9273,-0.9385,-0.9327,-0.9363,-0.938,-0.9385,-0.9394,-0.9332,-0.9433,-0.9606,-0.9624,-0.9401,-0.9399,-0.9397,0,-0.8812,-0.8919,-0.9012,-0.9039,-0.9097,-0.9141,-0.9167,-0.9212,-0.9252,-0.9306,-0.9333,-0.9396,-0.9432,-0.9481,-0.9493,-0.9451,-0.9604,-0.955,-0.9615,-0.9615,-0.9649,-0.9647,-0.983,-0.9671,-0.9671,-0.9671,-0.967,0,-0.8959,-0.9041,-0.9059,-0.9117,-0.9208,-0.9213,-0.9304,-0.9327,-0.9366,-0.9428,-0.9416,-0.9474,-0.9485,-0.9546,-0.9555,-0.9646,-0.9662,-0.9672,-0.9674,-0.9674,-0.9673,-0.9698,-0.969,-0.9676,-0.9674,-0.9673,-0.9673,0,-0.9091,-0.9107,-0.9207,-0.9253,-0.9266,-0.9331,-0.937,-0.9425,-0.9442,-0.952,-0.9538,-0.9565,-0.9635,-0.9651,-0.9735,-0.9742,-0.9849,-0.9843,-0.9833,-0.9833,-0.9897,-0.9891,-1.0103,-1.0131,-0.9954,-0.9955,-0.9957,0,-0.9184,-0.9246,-0.9298,-0.9338,-0.9365,-0.943,-0.9471,-0.9478,-0.9521,-0.9579,-0.9627,-0.9696,-0.9752,-0.9865,-0.9892,-0.9956,-0.9951,-1.0021,-0.9961,-0.9958,-0.9952,-0.9948,-0.9954,-1.0033,-1.0035,-1.0036,-1.0037,0,-0.9346,-0.935,-0.9409,-0.947,-0.9519,-0.9568,-0.9614,-0.9647,-0.9661,-0.971,-0.9781,-0.9824,-0.9909,-0.9977,-1.0041,-1.0068,-1.0056,-1.0056,-1.0074,-1.0075,-1.0067,-1.0072,-0.9865,-1.0051,-1.005,-1.0049,-1.0048,-1.0048,-0.9462,-0.9516,-0.956,-0.9626,-0.9661,-0.9704,-0.9758,-0.978,-0.984,-0.9909,-0.9909,-0.9987,-1.0033,-1.0117,-1.0148,-1.0209,-1.0187,-1.0214,-1.0221,-1.0228,-1.0233,-1.0057,-1.0221,-1.022,-1.022,-1.022,-1.0219,0,-0.9624,-0.9651,-0.9711,-0.9775,-0.9827,-0.9808,-0.9858,-0.9903,-0.9971,-1.0014,-1.0069,-1.015,-1.0216,-1.0247,-1.0313,-1.0355,-1.0351,-1.0372,-1.0369,-1.0376,-1.0249,-1.0227,-1.0375,-1.0375,-1.0375,-1.0374,-1.0374,-1.0374,-0.9714,-0.9804,-0.9814,-0.9922,-0.9948,-1.0024,-1.0054,-1.0093,-1.0128,-1.0219,-1.0273,-1.0293,-1.0331,-1.0399,-1.0458,-1.0466,-1.049,-1.0515,-1.0519,-1.0401,-1.0385,-1.037,-1.0349,-1.052,-1.052,-1.0641,-1.0642,-1.0643]},{"header":{"parameterUnit":"m.s-1","parameterCategory":1,"la1":30.2991,"la2":30.254,"lo1":-89.0895,"lo2":-89.0444,"dy":0.0017,"dx":0.0017,"nx":28,"ny":28,"refTime":"2024-08-20T03:00:00:Z","depth":0,"parameterNumber":3,"parameterNumberName":"V-component_of_WINDS"},"data":[0,0,0,0,0,0,0,0,0,0,0,0,0,0,0,0,0,0,0,0,0,0,0,0,0,0,0,0,0,0,0,0,0,0,0,0,0,0,0,0,0,0,0,0,0,0,0,0,0,0,0,0,0,0,0,0,0,0,-2.6151,-2.6151,0,-2.6146,-2.6146,-2.6146,-2.6094,-2.6093,-2.6091,-2.609,-2.6085,-2.6086,-2.6087,0,0,0,0,0,0,0,0,0,0,0,0,0,-2.6112,-2.6113,-2.6151,-2.6151,-2.6151,-2.6146,-2.6146,-2.6146,-2.6094,-2.6093,-2.6091,-2.609,-2.6085,-2.6086,-2.6087,0,0,0,0,0,0,0,0,0,0,0,0,0,-2.612,-2.6113,-2.6151,-2.6124,-2.6122,-2.6146,-2.6146,-2.6146,-2.6095,-2.6093,-2.6091,-2.6089,-2.6084,-2.6086,-2.6087,-2.6137,0,0,-2.6092,-2.6093,0,0,0,0,0,0,0,0,-2.612,-2.6122,-2.6128,-2.6126,-2.6123,-2.6119,-2.613,-2.6143,-2.6095,-2.6105,-2.609,-2.6088,-2.6098,-2.6098,-2.6102,-2.6136,-2.6136,-2.6092,-2.6093,-2.6094,-2.6095,0,0,0,0,0,0,0,-2.6119,-2.6121,-2.6149,-2.6128,-2.6125,-2.6112,-2.6111,-2.6133,-2.6112,-2.6104,-2.61,-2.61,-2.6096,-2.61,-2.6101,-2.6136,-2.6092,-2.6094,-2.6095,-2.6095,-2.6208,-2.621,0,0,0,0,0,0,-2.6122,-2.6121,-2.6149,-2.6149,-2.6117,-2.6114,-2.6113,-2.6122,-2.6112,-2.6109,-2.6102,-2.6098,-2.6098,-2.6099,-2.6101,-2.6156,-2.6094,-2.6096,-2.6097,-2.6206,-2.6208,-2.621,0,0,0,0,0,0,-2.6122,-2.6125,-2.6149,-2.6134,-2.6136,-2.6117,-2.6128,-2.6123,-2.6127,-2.6111,-2.6107,-2.611,-2.6097,-2.6098,-2.6127,-2.6155,-2.6096,-2.6098,-2.6203,-2.6207,-2.6209,-2.6267,0,0,0,0,0,0,-2.6121,-2.6126,-2.6145,-2.6135,-2.6137,-2.6177,-2.6129,-2.6124,-2.613,-2.6125,-2.6117,-2.6114,-2.6095,-2.6125,-2.6129,-2.6156,-2.6099,-2.6201,-2.6205,-2.6208,-2.6263,-2.6272,-2.628,0,0,0,0,0,-2.612,-2.6162,-2.6146,-2.615,-2.6161,-2.6179,-2.618,-2.6158,-2.6133,-2.6151,-2.614,-2.6114,-2.6151,-2.6129,-2.6133,-2.616,-2.6199,-2.6204,-2.6208,-2.6259,-2.627,-2.628,0,0,0,0,0,0,-2.6176,-2.616,-2.6143,-2.6183,-2.6183,-2.617,-2.6193,-2.6171,-2.6178,-2.6172,-2.6144,-2.6143,-2.6176,-2.6171,-2.6146,-2.6206,-2.617,-2.6176,-2.6208,-2.6218,-2.6227,-2.6227,-2.61,0,0,0,0,0,-2.6193,-2.621,-2.6195,-2.6232,-2.6232,-2.6213,-2.622,-2.6203,-2.6201,-2.6201,-2.6192,-2.6191,-2.6202,-2.621,-2.622,-2.6262,-2.6258,-2.6283,-2.6291,-2.6298,-2.6303,-2.6322,-2.6332,-2.6225,-2.6225,-2.6225,0,0,-2.6229,-2.6222,-2.6235,-2.6243,-2.6241,-2.6257,-2.6213,-2.6233,-2.6245,-2.6204,-2.623,-2.6223,-2.622,-2.6256,-2.6271,-2.6252,-2.6332,-2.6304,-2.631,-2.6311,-2.6328,-2.6338,-2.6347,-2.6228,-2.6228,-2.6227,0,0,-2.6302,-2.63,-2.6329,-2.6327,-2.6324,-2.631,-2.6317,-2.6307,-2.6301,-2.6327,-2.6296,-2.6309,-2.6329,-2.6327,-2.6329,-2.6399,-2.6374,-2.6403,-2.6446,-2.6466,-2.6474,-2.6481,-2.6504,-2.6513,-2.6408,-2.6408,-2.6408,0,-2.6347,-2.6371,-2.6347,-2.6368,-2.6372,-2.6335,-2.6363,-2.6362,-2.6362,-2.6365,-2.6345,-2.6368,-2.6363,-2.6396,-2.6413,-2.6417,-2.6422,-2.6403,-2.6475,-2.6482,-2.6488,-2.651,-2.6519,-2.6411,-2.6411,-2.641,-2.641,0,-2.6425,-2.6442,-2.6466,-2.6466,-2.6472,-2.6498,-2.6475,-2.6485,-2.6466,-2.6454,-2.648,-2.6473,-2.6479,-2.6486,-2.6469,-2.6516,-2.6504,-2.648,-2.6444,-2.6502,-2.6522,-2.653,-2.6416,-2.6415,-2.6414,-2.6413,0,0,-2.6535,-2.652,-2.6529,-2.6527,-2.652,-2.6532,-2.6554,-2.656,-2.6567,-2.6568,-2.6584,-2.6601,-2.6578,-2.658,-2.6562,-2.6579,-2.6632,-2.6552,-2.6552,-2.6566,-2.6681,-2.6698,-2.6708,-2.6616,-2.6617,-2.6618,-2.668,0,-2.6604,-2.6642,-2.6619,-2.6659,-2.6673,-2.6637,-2.6656,-2.6652,-2.6641,-2.6651,-2.6638,-2.665,-2.6619,-2.662,-2.6635,-2.6622,-2.6654,-2.6618,-2.6629,-2.663,-2.663,-2.6719,-2.6738,-2.6796,-2.6688,-2.6689,-2.669,0,-2.669,-2.6693,-2.6735,-2.6722,-2.6727,-2.6745,-2.6746,-2.6756,-2.6751,-2.6741,-2.6743,-2.6719,-2.6739,-2.6703,-2.6728,-2.6704,-2.6707,-2.6701,-2.6703,-2.6702,-2.6663,-2.6719,-2.6815,-2.6823,-2.6702,-2.6701,-2.67,0,-2.6764,-2.6779,-2.6805,-2.6805,-2.6791,-2.6803,-2.6798,-2.6791,-2.6795,-2.6796,-2.6798,-2.6802,-2.6804,-2.6807,-2.6785,-2.6762,-2.6812,-2.6775,-2.6803,-2.6804,-2.6815,-2.6815,-2.6911,-2.682,-2.6819,-2.6819,-2.6819,0,-2.6843,-2.6869,-2.6837,-2.6853,-2.6881,-2.6854,-2.6881,-2.6872,-2.6865,-2.6878,-2.6847,-2.6859,-2.683,-2.6839,-2.6821,-2.6843,-2.6845,-2.6837,-2.6831,-2.6839,-2.6839,-2.684,-2.6835,-2.6822,-2.6821,-2.6821,-2.682,0,-2.693,-2.691,-2.6935,-2.6919,-2.6916,-2.6937,-2.6922,-2.6936,-2.6921,-2.6937,-2.694,-2.6917,-2.6926,-2.6904,-2.691,-2.6898,-2.6929,-2.6918,-2.6931,-2.6927,-2.6955,-2.6952,-2.7055,-2.7066,-2.6968,-2.6969,-2.697,0,-2.6982,-2.7001,-2.6986,-2.6992,-2.6988,-2.6998,-2.7001,-2.6975,-2.6979,-2.6973,-2.6987,-2.6992,-2.6995,-2.701,-2.6994,-2.6997,-2.6985,-2.7021,-2.6985,-2.6991,-2.6983,-2.6982,-2.6983,-2.7028,-2.7029,-2.703,-2.7031,0,-2.7074,-2.7062,-2.7068,-2.707,-2.7075,-2.7075,-2.7073,-2.708,-2.7051,-2.7057,-2.7065,-2.7067,-2.7072,-2.7077,-2.7076,-2.707,-2.7045,-2.7042,-2.7048,-2.7055,-2.7061,-2.7056,-2.6949,-2.704,-2.7039,-2.7038,-2.7038,-2.7037,-2.7143,-2.7158,-2.7149,-2.7156,-2.7151,-2.7149,-2.716,-2.7147,-2.7153,-2.7154,-2.7138,-2.7148,-2.714,-2.7136,-2.7132,-2.7139,-2.7122,-2.7132,-2.7134,-2.7137,-2.7141,-2.7061,-2.7139,-2.7138,-2.7138,-2.7138,-2.7138,0,-2.7233,-2.7224,-2.7231,-2.7229,-2.7234,-2.721,-2.7205,-2.7211,-2.7221,-2.7215,-2.7218,-2.7225,-2.723,-2.7213,-2.7215,-2.7223,-2.7212,-2.7225,-2.7223,-2.7221,-2.7156,-2.715,-2.7234,-2.7234,-2.7234,-2.7234,-2.7234,-2.7234,-2.728,-2.7301,-2.7288,-2.7307,-2.7298,-2.7308,-2.7307,-2.7305,-2.73,-2.731,-2.7313,-2.7302,-2.7291,-2.7291,-2.7293,-2.7288,-2.7289,-2.7306,-2.7297,-2.7236,-2.7226,-2.7217,-2.7211,-2.7307,-2.7307,-2.7361,-2.7361,-2.7362]}]]